• In Hungary
  • List of Countries
  • For 7 days
  • Water Temperature
  • Satellite Maps
  • Weather Map
  • News
  • Weather Widgets
  • user-avatar
    Login

    Hourly Weather Jesenik

    Today, 21 September, Friday

    Time Temperature Precipitation Wind Pressure Humidity
    00:00 +17°C° 0 mm 2 mps 724 mmHg 78%
    01:00 +17°C° 0 mm 2 mps 724 mmHg 79%
    02:00 +17°C° 0 mm 2 mps 724 mmHg 80%
    03:00 +16°C° 0 mm 2 mps 723 mmHg 80%
    04:00 +16°C° 0 mm 2 mps 723 mmHg 80%
    05:00 +16°C° 0 mm 2 mps 723 mmHg 78%
    06:00 +17°C° 0 mm 2 mps 723 mmHg 76%
    07:00 +17°C° 0 mm 2 mps 722 mmHg 74%
    08:00 +19°C° 0 mm 3 mps 722 mmHg 66%
    09:00 +21°C° 0 mm 4 mps 722 mmHg 59%
    10:00 +23°C° 0 mm 5 mps 722 mmHg 51%
    11:00 +25°C° 0 mm 5 mps 722 mmHg 49%
    12:00 +24°C° 0 mm 6 mps 721 mmHg 47%
    13:00 +26°C° 0 mm 6 mps 721 mmHg 46%
    14:00 +26°C° 0 mm 6 mps 720 mmHg 47%
    15:00 +25°C° 0 mm 5 mps 720 mmHg 49%
    16:00 +25°C° 0 mm 5 mps 719 mmHg 51%
    17:00 +23°C° 0 mm 5 mps 719 mmHg 54%
    18:00 +21°C° 0 mm 4 mps 719 mmHg 57%
    19:00 +20°C° 0 mm 4 mps 719 mmHg 60%
    20:00 +20°C° 0.2 mm 4 mps 720 mmHg 65%
    21:00 +19°C° 0.2 mm 4 mps 720 mmHg 69%
    22:00 +18°C° 0.2 mm 4 mps 721 mmHg 74%
    23:00 +17°C° 1.3 mm 4 mps 721 mmHg 78%

    Tomorrow, 22 September, Saturday

    Time Temperature Precipitation Wind Pressure Humidity
    00:00 +14°C° 1.3 mm 4 mps 722 mmHg 82%
    01:00 +12°C° 1.3 mm 4 mps 723 mmHg 86%
    02:00 +12°C° 0.3 mm 3 mps 723 mmHg 85%
    03:00 +13°C° 0.3 mm 2 mps 724 mmHg 84%
    04:00 +12°C° 0.3 mm 2 mps 725 mmHg 83%
    05:00 +12°C° 0.1 mm 2 mps 725 mmHg 82%
    06:00 +12°C° 0.1 mm 2 mps 725 mmHg 81%
    07:00 +12°C° 0.1 mm 2 mps 725 mmHg 80%
    08:00 +12°C° 0 mm 3 mps 725 mmHg 71%
    09:00 +13°C° 0 mm 4 mps 725 mmHg 63%
    10:00 +14°C° 0 mm 5 mps 726 mmHg 54%
    11:00 +14°C° 0 mm 5 mps 725 mmHg 51%
    12:00 +15°C° 0 mm 5 mps 725 mmHg 48%
    13:00 +16°C° 0 mm 6 mps 725 mmHg 45%
    14:00 +15°C° 0 mm 5 mps 725 mmHg 46%
    15:00 +15°C° 0 mm 5 mps 725 mmHg 47%
    16:00 +15°C° 0 mm 5 mps 725 mmHg 48%
    17:00 +14°C° 0 mm 4 mps 725 mmHg 51%
    18:00 +12°C° 0 mm 3 mps 725 mmHg 55%
    19:00 +11°C° 0 mm 3 mps 725 mmHg 59%
    20:00 +11°C° 0 mm 3 mps 726 mmHg 60%
    21:00 +12°C° 0 mm 2 mps 726 mmHg 61%
    22:00 +10°C° 0 mm 2 mps 726 mmHg 62%
    23:00 +10°C° 0 mm 2 mps 726 mmHg 65%

    Day after tomorrow, 23 September, Sunday

    Time Temperature Precipitation Wind Pressure Humidity
    00:00 +9°C° 0 mm 2 mps 726 mmHg 68%
    01:00 +8°C° 0 mm 2 mps 726 mmHg 70%
    02:00 +8°C° 0 mm 2 mps 726 mmHg 72%
    03:00 +8°C° 0 mm 2 mps 726 mmHg 74%
    04:00 +8°C° 0 mm 2 mps 726 mmHg 75%
    05:00 +8°C° 0 mm 2 mps 726 mmHg 74%
    06:00 +9°C° 0 mm 2 mps 726 mmHg 73%
    07:00 +9°C° 0 mm 2 mps 726 mmHg 72%
    08:00 +11°C° 0 mm 3 mps 726 mmHg 70%
    09:00 +12°C° 0 mm 4 mps 726 mmHg 67%
    10:00 +13°C° 0 mm 4 mps 726 mmHg 64%
    11:00 +13°C° 0 mm 4 mps 725 mmHg 64%
    12:00 +13°C° 0 mm 4 mps 725 mmHg 65%
    13:00 +13°C° 0 mm 4 mps 724 mmHg 65%
    14:00 +12°C° 0.1 mm 4 mps 724 mmHg 69%
    15:00 +12°C° 0.1 mm 4 mps 723 mmHg 72%
    16:00 +12°C° 0.1 mm 5 mps 722 mmHg 75%
    17:00 +12°C° 0.2 mm 4 mps 722 mmHg 79%
    18:00 +12°C° 0.2 mm 4 mps 721 mmHg 82%
    19:00 +12°C° 0.2 mm 4 mps 721 mmHg 86%
    20:00 +12°C° 0.1 mm 5 mps 720 mmHg 85%
    21:00 +13°C° 0.1 mm 6 mps 718 mmHg 84%
    22:00 +12°C° 0.1 mm 7 mps 717 mmHg 83%
    23:00 +14°C° 2.1 mm 7 mps 716 mmHg 84%

    24 September, Monday

    Time Temperature Precipitation Wind Pressure Humidity
    00:00 +13°C° 2.1 mm 8 mps 715 mmHg 85%
    01:00 +13°C° 2.1 mm 8 mps 713 mmHg 86%
    02:00 +15°C° 3.5 mm 9 mps 712 mmHg 86%
    03:00 +15°C° 3.5 mm 9 mps 711 mmHg 86%
    04:00 +14°C° 3.5 mm 10 mps 710 mmHg 85%
    05:00 +13°C° 0.4 mm 11 mps 712 mmHg 83%
    06:00 +11°C° 0.4 mm 11 mps 713 mmHg 81%
    07:00 +8°C° 0.4 mm 12 mps 715 mmHg 79%
    08:00 +7°C° 0.1 mm 11 mps 717 mmHg 78%
    09:00 +7°C° 0.1 mm 11 mps 720 mmHg 76%
    10:00 +7°C° 0.1 mm 10 mps 722 mmHg 75%
    11:00 +7°C° 0 mm 10 mps 723 mmHg 70%
    12:00 +8°C° 0 mm 10 mps 724 mmHg 64%
    13:00 +9°C° 0 mm 10 mps 724 mmHg 59%
    14:00 +9°C° 0 mm 10 mps 725 mmHg 56%
    15:00 +10°C° 0 mm 9 mps 726 mmHg 53%
    16:00 +10°C° 0 mm 8 mps 726 mmHg 50%
    17:00 +9°C° 0 mm 7 mps 727 mmHg 54%
    18:00 +7°C° 0 mm 6 mps 728 mmHg 58%
    19:00 +6°C° 0 mm 5 mps 728 mmHg 62%
    20:00 +6°C° 0 mm 5 mps 729 mmHg 65%
    21:00 +5°C° 0 mm 4 mps 729 mmHg 68%
    22:00 +5°C° 0 mm 4 mps 730 mmHg 71%
    23:00 +4°C° 0 mm 4 mps 730 mmHg 73%

    25 September, Tuesday

    Time Temperature Precipitation Wind Pressure Humidity
    00:00 +4°C° 0 mm 4 mps 731 mmHg 75%
    01:00 +4°C° 0 mm 4 mps 731 mmHg 77%
    02:00 +3°C° 0 mm 4 mps 731 mmHg 79%
    03:00 +3°C° 0 mm 3 mps 732 mmHg 81%
    04:00 +3°C° 0 mm 3 mps 732 mmHg 83%
    05:00 +3°C° 0 mm 3 mps 733 mmHg 82%
    06:00 +3°C° 0 mm 3 mps 733 mmHg 81%
    07:00 +3°C° 0 mm 3 mps 734 mmHg 81%
    08:00 +5°C° 0 mm 4 mps 734 mmHg 72%
    09:00 +7°C° 0 mm 5 mps 735 mmHg 63%
    10:00 +8°C° 0 mm 5 mps 736 mmHg 54%
    11:00 +9°C° 0 mm 5 mps 736 mmHg 51%
    12:00 +9°C° 0 mm 5 mps 736 mmHg 48%
    13:00 +10°C° 0 mm 5 mps 736 mmHg 46%
    14:00 +10°C° 0 mm 5 mps 736 mmHg 46%
    15:00 +9°C° 0 mm 5 mps 736 mmHg 47%
    16:00 +10°C° 0 mm 4 mps 736 mmHg 48%
    17:00 +8°C° 0 mm 4 mps 736 mmHg 52%
    18:00 +7°C° 0 mm 3 mps 736 mmHg 57%
    19:00 +6°C° 0 mm 2 mps 736 mmHg 62%
    20:00 +5°C° 0 mm 2 mps 736 mmHg 63%
    21:00 +5°C° 0 mm 2 mps 736 mmHg 63%
    22:00 +5°C° 0 mm 2 mps 737 mmHg 63%
    23:00 +4°C° 0 mm 3 mps 736 mmHg 64%

    26 September, Wednesday

    Time Temperature Precipitation Wind Pressure Humidity
    00:00 +4°C° 0 mm 3 mps 736 mmHg 64%
    01:00 +5°C° 0 mm 3 mps 736 mmHg 64%
    02:00 +5°C° 0.1 mm 3 mps 736 mmHg 66%
    03:00 +5°C° 0.1 mm 3 mps 735 mmHg 69%
    04:00 +5°C° 0.1 mm 4 mps 735 mmHg 71%
    05:00 +5°C° 0 mm 4 mps 735 mmHg 73%
    06:00 +5°C° 0 mm 4 mps 735 mmHg 74%
    07:00 +5°C° 0 mm 4 mps 735 mmHg 76%
    08:00 +6°C° 0 mm 5 mps 735 mmHg 74%
    09:00 +7°C° 0 mm 5 mps 735 mmHg 73%
    10:00 +9°C° 0 mm 6 mps 736 mmHg 71%
    11:00 +9°C° 0 mm 5 mps 736 mmHg 69%
    12:00 +10°C° 0 mm 5 mps 736 mmHg 67%
    13:00 +10°C° 0 mm 5 mps 736 mmHg 65%
    14:00 +10°C° 0 mm 5 mps 736 mmHg 65%
    15:00 +12°C° 0 mm 4 mps 735 mmHg 65%
    16:00 +12°C° 0 mm 4 mps 735 mmHg 65%
    17:00 +10°C° 0 mm 3 mps 735 mmHg 72%
    18:00 +9°C° 0 mm 3 mps 735 mmHg 78%
    19:00 +7°C° 0 mm 2 mps 736 mmHg 85%
    20:00 +7°C° 0 mm 2 mps 736 mmHg 86%
    21:00 +7°C° 0 mm 1 mps 736 mmHg 86%
    22:00 +7°C° 0 mm 1 mps 736 mmHg 87%
    23:00 +7°C° 0 mm 1 mps 736 mmHg 87%
    Show more